Location: *
(2.7500°S, 66.6833°W)
Time: 03:20:16
(UTC+00:00)

Cosmos 2298 Rocket - Pass Details

Date: 24 May 2024
Orbit: 774 x 783 km, 74.0° (Epoch: 23 June)

Event Time Altitude Azimuth Distance (km) Brightness Sun altitude
Rises 22:44:04 0° 358° (N) 3,251 7.6 -5.7°
Reaches altitude 10° 22:46:31 10° 3° (N) 2,325 6.7 -6.3°
Maximum altitude 22:51:37 50° 78° (ENE) 981 4.3 -7.5°
Drops below altitude 10° 22:56:45 10° 153° (SSE) 2,332 6.1 -8.7°
Sets 22:59:11 0° 158° (SSE) 3,261 6.8 -9.3°
